• In Czech Republic
  • List of Countries
  • For 7 days
  • Water Temperature
  • Satellite Maps
  • Weather Map
  • Weather Widgets
  • user-avatar
    Login

    Hourly Weather Apizaco

    Today, 17 July, Tuesday

    Time Temperature Precipitation Wind Pressure Humidity
    00:00 +13°C° 0 mm 1 mps 571 mmHg 90%
    01:00 +12°C° 0 mm 1 mps 571 mmHg 90%
    02:00 +12°C° 0 mm 1 mps 571 mmHg 90%
    03:00 +12°C° 0 mm 1 mps 571 mmHg 90%
    04:00 +11°C° 0 mm 1 mps 571 mmHg 89%
    05:00 +11°C° 0 mm 1 mps 570 mmHg 88%
    06:00 +13°C° 0 mm 1 mps 572 mmHg 79%
    07:00 +15°C° 0 mm 1 mps 573 mmHg 70%
    08:00 +19°C° 0 mm 1 mps 574 mmHg 60%
    09:00 +20°C° 0.1 mm 1 mps 575 mmHg 56%
    10:00 +20°C° 0.1 mm 2 mps 575 mmHg 52%
    11:00 +22°C° 0.1 mm 3 mps 576 mmHg 48%
    12:00 +21°C° 0.3 mm 3 mps 575 mmHg 51%
    13:00 +21°C° 0.3 mm 3 mps 574 mmHg 54%
    14:00 +21°C° 0.3 mm 3 mps 574 mmHg 56%
    15:00 +20°C° 1.2 mm 3 mps 573 mmHg 62%
    16:00 +18°C° 1.2 mm 2 mps 573 mmHg 68%
    17:00 +17°C° 1.2 mm 2 mps 572 mmHg 74%
    18:00 +16°C° 0.6 mm 2 mps 572 mmHg 79%
    19:00 +15°C° 0.6 mm 2 mps 572 mmHg 83%
    20:00 +14°C° 0.6 mm 2 mps 571 mmHg 88%
    21:00 +13°C° 0 mm 1 mps 571 mmHg 89%
    22:00 +12°C° 0 mm 1 mps 571 mmHg 89%
    23:00 +12°C° 0 mm 1 mps 571 mmHg 90%

    Tomorrow, 18 July, Wednesday

    Time Temperature Precipitation Wind Pressure Humidity
    00:00 +12°C° 0 mm 1 mps 571 mmHg 89%
    01:00 +11°C° 0 mm 1 mps 571 mmHg 88%
    02:00 +11°C° 0 mm 1 mps 570 mmHg 87%
    03:00 +11°C° 0 mm 1 mps 570 mmHg 86%
    04:00 +10°C° 0 mm 1 mps 570 mmHg 84%
    05:00 +10°C° 0 mm 1 mps 570 mmHg 82%
    06:00 +13°C° 0 mm 1 mps 571 mmHg 73%
    07:00 +15°C° 0 mm 1 mps 572 mmHg 64%
    08:00 +16°C° 0 mm 0 mps 574 mmHg 55%
    09:00 +20°C° 0 mm 1 mps 574 mmHg 49%
    10:00 +21°C° 0 mm 2 mps 575 mmHg 43%
    11:00 +23°C° 0 mm 2 mps 575 mmHg 37%
    12:00 +22°C° 0.1 mm 3 mps 575 mmHg 39%
    13:00 +24°C° 0.1 mm 3 mps 574 mmHg 41%
    14:00 +24°C° 0.1 mm 3 mps 574 mmHg 43%
    15:00 +21°C° 0.2 mm 3 mps 573 mmHg 51%
    16:00 +20°C° 0.2 mm 3 mps 572 mmHg 58%
    17:00 +19°C° 0.2 mm 3 mps 572 mmHg 65%
    18:00 +17°C° 0.3 mm 3 mps 571 mmHg 72%
    19:00 +15°C° 0.3 mm 2 mps 571 mmHg 79%
    20:00 +14°C° 0.3 mm 2 mps 571 mmHg 85%
    21:00 +13°C° 0.1 mm 2 mps 571 mmHg 86%
    22:00 +13°C° 0.1 mm 1 mps 570 mmHg 87%
    23:00 +12°C° 0.1 mm 1 mps 570 mmHg 88%

    Day after tomorrow, 19 July, Thursday

    Time Temperature Precipitation Wind Pressure Humidity
    00:00 +12°C° 0 mm 1 mps 570 mmHg 87%
    01:00 +11°C° 0 mm 1 mps 569 mmHg 85%
    02:00 +11°C° 0 mm 1 mps 569 mmHg 83%
    03:00 +11°C° 0 mm 1 mps 569 mmHg 81%
    04:00 +10°C° 0 mm 1 mps 568 mmHg 78%
    05:00 +10°C° 0 mm 1 mps 568 mmHg 75%
    06:00 +13°C° 0 mm 1 mps 570 mmHg 66%
    07:00 +15°C° 0 mm 1 mps 571 mmHg 56%
    08:00 +17°C° 0 mm 0 mps 573 mmHg 47%
    09:00 +20°C° 0 mm 1 mps 573 mmHg 42%
    10:00 +22°C° 0 mm 1 mps 574 mmHg 37%
    11:00 +23°C° 0 mm 2 mps 574 mmHg 33%
    12:00 +24°C° 0 mm 2 mps 574 mmHg 34%
    13:00 +24°C° 0 mm 2 mps 573 mmHg 36%
    14:00 +24°C° 0 mm 3 mps 573 mmHg 37%
    15:00 +22°C° 0.2 mm 3 mps 572 mmHg 46%
    16:00 +21°C° 0.2 mm 3 mps 572 mmHg 54%
    17:00 +19°C° 0.2 mm 3 mps 571 mmHg 63%
    18:00 +18°C° 0.5 mm 2 mps 571 mmHg 70%
    19:00 +16°C° 0.5 mm 2 mps 571 mmHg 77%
    20:00 +14°C° 0.5 mm 1 mps 570 mmHg 85%
    21:00 +14°C° 0.2 mm 1 mps 570 mmHg 84%
    22:00 +13°C° 0.2 mm 1 mps 570 mmHg 84%
    23:00 +13°C° 0.2 mm 1 mps 570 mmHg 84%

    20 July, Friday

    Time Temperature Precipitation Wind Pressure Humidity
    00:00 +13°C° 0 mm 1 mps 570 mmHg 84%
    01:00 +12°C° 0 mm 1 mps 569 mmHg 85%
    02:00 +12°C° 0 mm 1 mps 569 mmHg 85%
    03:00 +12°C° 0 mm 1 mps 569 mmHg 85%
    04:00 +12°C° 0 mm 1 mps 569 mmHg 86%
    05:00 +11°C° 0 mm 1 mps 569 mmHg 86%
    06:00 +14°C° 0 mm 1 mps 570 mmHg 79%
    07:00 +16°C° 0 mm 1 mps 572 mmHg 71%
    08:00 +19°C° 0 mm 1 mps 573 mmHg 64%
    09:00 +20°C° 0 mm 1 mps 573 mmHg 59%
    10:00 +21°C° 0 mm 2 mps 574 mmHg 53%
    11:00 +23°C° 0 mm 2 mps 574 mmHg 48%
    12:00 +23°C° 0.5 mm 2 mps 573 mmHg 52%
    13:00 +21°C° 0.5 mm 3 mps 573 mmHg 57%
    14:00 +21°C° 0.5 mm 3 mps 572 mmHg 61%
    15:00 +20°C° 1.2 mm 3 mps 572 mmHg 65%
    16:00 +19°C° 1.2 mm 3 mps 572 mmHg 70%
    17:00 +19°C° 1.2 mm 3 mps 571 mmHg 75%
    18:00 +17°C° 1.1 mm 2 mps 571 mmHg 80%
    19:00 +16°C° 1.1 mm 2 mps 571 mmHg 85%
    20:00 +14°C° 1.1 mm 1 mps 571 mmHg 90%
    21:00 +14°C° 0.1 mm 1 mps 571 mmHg 90%
    22:00 +13°C° 0.1 mm 1 mps 571 mmHg 91%
    23:00 +13°C° 0.1 mm 1 mps 571 mmHg 92%

    21 July, Saturday

    Time Temperature Precipitation Wind Pressure Humidity
    00:00 +12°C° 0 mm 1 mps 570 mmHg 90%
    01:00 +12°C° 0 mm 1 mps 570 mmHg 89%
    02:00 +11°C° 0 mm 1 mps 569 mmHg 88%
    03:00 +11°C° 0 mm 1 mps 569 mmHg 84%
    04:00 +11°C° 0 mm 1 mps 569 mmHg 81%
    05:00 +10°C° 0 mm 1 mps 569 mmHg 78%
    06:00 +13°C° 0 mm 1 mps 570 mmHg 69%
    07:00 +15°C° 0 mm 1 mps 572 mmHg 59%
    08:00 +19°C° 0 mm 1 mps 573 mmHg 50%
    09:00 +19°C° 0 mm 2 mps 574 mmHg 45%
    10:00 +21°C° 0 mm 2 mps 574 mmHg 41%
    11:00 +22°C° 0 mm 3 mps 575 mmHg 36%
    12:00 +22°C° 0 mm 4 mps 574 mmHg 39%
    13:00 +23°C° 0 mm 4 mps 574 mmHg 42%
    14:00 +23°C° 0 mm 5 mps 574 mmHg 45%
    15:00 +21°C° 0 mm 5 mps 573 mmHg 52%
    16:00 +20°C° 0 mm 4 mps 572 mmHg 59%
    17:00 +19°C° 0 mm 4 mps 572 mmHg 67%
    18:00 +17°C° 0 mm 4 mps 572 mmHg 74%
    19:00 +14°C° 0 mm 3 mps 571 mmHg 82%
    20:00 +13°C° 0 mm 2 mps 571 mmHg 89%
    21:00 +13°C° 0 mm 2 mps 571 mmHg 90%
    22:00 +13°C° 0 mm 2 mps 571 mmHg 91%
    23:00 +12°C° 0 mm 2 mps 571 mmHg 92%

    22 July, Sunday

    Time Temperature Precipitation Wind Pressure Humidity
    00:00 +12°C° 0 mm 2 mps 571 mmHg 91%
    01:00 +10°C° 0 mm 2 mps 570 mmHg 91%
    02:00 +10°C° 0 mm 2 mps 570 mmHg 90%
    03:00 +9°C° 0 mm 2 mps 570 mmHg 88%
    04:00 +9°C° 0 mm 2 mps 570 mmHg 85%
    05:00 +9°C° 0 mm 2 mps 570 mmHg 83%
    06:00 +12°C° 0 mm 2 mps 571 mmHg 74%
    07:00 +15°C° 0 mm 2 mps 572 mmHg 66%
    08:00 +17°C° 0 mm 2 mps 573 mmHg 58%
    09:00 +18°C° 0.1 mm 2 mps 574 mmHg 57%
    10:00 +19°C° 0.1 mm 3 mps 574 mmHg 55%
    11:00 +21°C° 0.1 mm 4 mps 574 mmHg 54%
    12:00 +21°C° 0.2 mm 4 mps 574 mmHg 53%
    13:00 +22°C° 0.2 mm 4 mps 574 mmHg 52%
    14:00 +22°C° 0.2 mm 4 mps 574 mmHg 50%
    15:00 +21°C° 0.1 mm 4 mps 573 mmHg 55%
    16:00 +20°C° 0.1 mm 4 mps 573 mmHg 60%
    17:00 +19°C° 0.1 mm 3 mps 572 mmHg 65%
    18:00 +17°C° 0 mm 3 mps 572 mmHg 72%
    19:00 +15°C° 0 mm 2 mps 572 mmHg 79%
    20:00 +14°C° 0 mm 2 mps 571 mmHg 87%
    21:00 +13°C° 0 mm 2 mps 571 mmHg 88%
    22:00 +12°C° 0 mm 2 mps 571 mmHg 89%
    23:00 +12°C° 0 mm 1 mps 571 mmHg 91%
    Show more